DW0830 Weather Reports


time (UTC)temp
C
wind
direction
speed
KPH
gust
KPH
rain 1hr
cm
rain 24hr
cm
rain mn
cm
humidity
%
barometer
mb
20260507060153 16 180 9.7 11.3 0.00 0.00 0.00 80 1009.6
20260507055605 16 135 9.7 11.3 0.00 0.00 0.00 81 1009.7
20260507054647 16 135 8.0 11.3 0.00 0.00 0.00 81 1009.7
20260507053634 16 135 4.8 6.4 0.00 0.00 0.00 82 1009.2
20260507052622 16 135 9.7 11.3 0.00 0.00 0.00 84 1009.3
20260507051609 16 180 6.4 9.7 0.00 0.00 0.00 84 1009.0
20260507050607 15 180 3.2 4.8 0.00 0.00 0.00 83 1009.0
20260507045659 15 0.0 0.0 0.00 0.00 0.00 84 1009.2
20260507044647 15 45 3.2 4.8 0.00 0.00 0.00 85 1009.0
20260507043636 15 0.0 0.0 0.00 0.00 0.00 85 1008.5
20260507042629 15 0.0 0.0 0.00 0.00 0.00 86 1008.6
20260507041617 14 135 6.4 8.0 0.00 0.00 0.00 86 1008.8
20260507040606 14 0 1.6 3.2 0.00 0.00 0.00 85 1008.3
20260507035656 14 0.0 0.0 0.00 0.00 0.00 84 1008.3
20260507034644 13 315 3.2 3.2 0.00 0.00 0.00 84 1008.3
20260507033633 13 180 1.6 3.2 0.00 0.00 0.00 81 1008.1
20260507032620 15 135 6.4 6.4 0.00 0.00 0.00 80 1008.2
20260507031610 15 135 3.2 4.8 0.00 0.00 0.00 80 1008.1
20260507030606 15 135 6.4 8.0 0.00 0.00 0.00 81 1008.0
20260507025658 15 135 6.4 6.4 0.00 0.00 0.00 82 1008.0
20260507024647 15 135 9.7 11.3 0.00 0.00 0.00 87 1008.1
20260507023635 14 0.0 3.2 0.00 0.00 0.00 86 1007.8
20260507022628 15 45 1.6 3.2 0.00 0.00 0.00 85 1008.0
20260507021618 15 0.0 0.0 0.00 0.00 0.00 85 1008.0
20260507020605 15 180 6.4 8.0 0.00 0.00 0.00 86 1007.6
20260507005236 16 135 9.7 11.3 0.00 0.00 0.00 85 1008.1
20260507004203 16 135 9.7 11.3 0.00 0.00 0.00 85 1008.1
20260507003130 16 90 3.2 6.4 0.00 0.00 0.00 85 1008.3
20260507002119 16 45 4.8 6.4 0.00 0.00 0.00 84 1008.4
20260507001204 16 135 6.4 8.0 0.00 0.00 0.00 84 1008.5
20260507000153 16 135 3.2 4.8 0.00 0.00 0.00 84 1008.5
20260506235245 16 135 4.8 6.4 0.00 0.00 0.00 83 1008.5
20260506234233 16 180 6.4 9.7 0.00 0.00 0.00 83 1008.3
20260506233222 16 180 12.9 14.5 0.00 0.00 0.00 82 1008.6
20260506232210 17 180 14.5 17.7 0.00 0.00 0.00 82 1008.6
20260506231204 17 225 12.9 17.7 0.00 0.00 0.00 83 1008.8
20260506230153 17 180 14.5 17.7 0.00 0.00 0.00 82 1008.9
20260506225246 17 180 20.9 27.4 0.00 0.00 0.00 76 1008.7
20260506224233 17 180 14.5 16.1 0.00 0.00 0.00 77 1008.5
20260506223222 17 180 9.7 12.9 0.00 0.00 0.00 81 1008.1
20260506222211 16 180 9.7 11.3 0.00 0.00 0.00 82 1007.8
20260506221206 17 135 4.8 6.4 0.00 0.00 0.00 81 1008.0
20260506220153 17 180 4.8 6.4 0.00 0.00 0.00 80 1008.0
20260506215253 17 135 4.8 6.4 0.00 0.00 0.00 81 1007.9
20260506214241 17 135 6.4 6.4 0.00 0.00 0.00 81 1008.0
20260506213229 17 135 6.4 6.4 0.00 0.00 0.00 76 1007.8
20260506212210 17 135 8.0 8.0 0.00 0.00 0.00 74 1007.8
20260506211205 18 135 1.6 3.2 0.00 0.00 0.00 73 1007.9
20260506210153 18 225 4.8 6.4 0.00 0.00 0.00 73 1007.8
20260506205252 18 225 9.7 12.9 0.00 0.00 0.00 74 1007.9
20260506204240 17 180 9.7 12.9 0.00 0.00 0.00 76 1007.9
20260506203221 18 225 17.7 19.3 0.00 0.00 0.00 73 1007.9
20260506202208 19 225 24.1 27.4 0.00 0.00 0.00 66 1008.3
20260506201204 20 270 32.2 33.8 0.00 0.00 0.00 61 1008.0
20260506200152 21 225 32.2 37.0 0.00 0.00 0.00 57 1007.9
20260506195245 20 180 9.7 11.3 0.00 0.00 0.00 58 1007.5
20260506194233 20 135 4.8 6.4 0.00 0.00 0.00 54 1007.4
20260506193221 20 113 3.2 3.2 0.00 0.00 0.00 53 1007.3
20260506192211 20 0.0 0.0 0.00 0.00 0.00 54 1007.0
20260506191204 20 0.0 0.0 0.00 0.00 0.00 54 1007.1
20260506190212 20 225 1.6 3.2 0.00 0.00 0.00 53 1007.2
20260506185252 20 225 4.8 6.4 0.00 0.00 0.00 53 1007.1
20260506184242 20 225 6.4 8.0 0.00 0.00 0.00 52 1006.9
20260506183229 21 180 1.6 3.2 0.00 0.00 0.00 52 1007.0
20260506182209 21 0.0 0.0 0.00 0.00 0.00 51 1006.7
20260506181204 21 225 6.4 8.0 0.00 0.00 0.00 50 1006.5
20260506180212 22 225 11.3 12.9 0.00 0.00 0.00 45 1006.1
20260506175141 22 180 11.3 12.9 0.00 0.00 0.00 44 1006.3
20260506174130 22 270 12.9 16.1 0.00 0.00 0.00 43 1006.0
20260506173118 23 225 12.9 12.9 0.00 0.00 0.00 43 1006.1
20260506172108 23 225 17.7 19.3 0.00 0.00 0.00 42 1006.0
20260506171102 23 225 12.9 16.1 0.00 0.00 0.00 42 1006.3
20260506170152 23 225 14.5 16.1 0.00 0.00 0.00 41 1006.4
20260506165658 23 225 20.9 22.5 0.00 0.00 0.00 41 1006.0
20260506164705 23 270 14.5 17.7 0.00 0.00 0.00 41 1006.1
20260506163631 23 225 22.5 25.7 0.00 0.00 0.00 40 1006.0
20260506162646 24 180 27.4 29.0 0.00 0.00 0.00 40 1006.3
20260506161610 24 225 16.1 20.9 0.00 0.00 0.00 40 1006.3
20260506160604 25 270 11.3 12.9 0.00 0.00 0.00 40 1006.3
20260506155306 25 225 19.3 22.5 0.00 0.00 0.00 38 1006.4
20260506154230 24 225 19.3 22.5 0.00 0.00 0.00 38 1006.6
20260506153219 25 180 16.1 20.9 0.00 0.00 0.00 38 1006.4
20260506152228 25 225 14.5 19.3 0.00 0.00 0.00 38 1006.4
20260506151204 25 225 17.7 22.5 0.00 0.00 0.00 35 1006.5
20260506150212 26 203 20.9 25.7 0.00 0.00 0.00 34 1006.4
20260506145252 25 225 19.3 24.1 0.00 0.00 0.00 34 1006.7
20260506144240 26 270 17.7 19.3 0.00 0.00 0.00 34 1006.7
20260506143229 25 203 20.9 24.1 0.00 0.00 0.00 35 1006.9
20260506142210 25 180 22.5 24.1 0.00 0.00 0.00 33 1007.0
20260506141206 25 225 19.3 24.1 0.00 0.00 0.00 32 1007.0
20260506140153 26 225 22.5 25.7 0.00 0.00 0.00 32 1006.9
20260506135245 26 225 24.1 27.4 0.00 0.00 0.00 32 1007.0
20260506134313 26 248 20.9 24.1 0.00 0.00 0.00 32 1007.0
20260506133224 25 225 25.7 32.2 0.00 0.00 0.00 32 1007.2
20260506132212 25 180 24.1 25.7 0.00 0.00 0.00 32 1007.2
20260506131206 25 180 24.1 27.4 0.00 0.00 0.00 32 1007.2
20260506130153 25 135 17.7 20.9 0.00 0.00 0.00 33 1007.3
20260506125306 25 225 29.0 37.0 0.00 0.00 0.00 32 1007.4
20260506124253 25 225 30.6 37.0 0.00 0.00 0.00 32 1007.4
20260506123219 25 180 24.1 27.4 0.00 0.00 0.00 34 1007.7
20260506122249 25 180 27.4 32.2 0.00 0.00 0.00 33 1007.6
20260506121205 25 225 29.0 35.4 0.00 0.00 0.00 35 1007.6
20260506120152 24 180 24.1 27.4 0.00 0.00 0.00 33 1007.7
20260506115657 25 180 27.4 30.6 0.00 0.00 0.00 34 1007.8
20260506114645 24 225 24.1 27.4 0.00 0.00 0.00 37 1007.6
20260506113653 24 180 19.3 20.9 0.00 0.00 0.00 40 1007.8
20260506112642 24 180 25.7 32.2 0.00 0.00 0.00 40 1007.8
20260506111609 24 180 29.0 33.8 0.00 0.00 0.00 41 1008.3
20260506110604 23 203 19.3 24.1 0.00 0.00 0.00 42 1007.9
20260506105242 23 180 25.7 29.0 0.00 0.00 0.00 43 1008.3
20260506104230 23 180 30.6 35.4 0.00 0.00 0.00 45 1008.4
20260506103220 23 180 22.5 27.4 0.00 0.00 0.00 45 1008.5
20260506102208 22 225 19.3 22.5 0.00 0.00 0.00 50 1008.2
20260506101204 22 135 22.5 24.1 0.00 0.00 0.00 50 1008.5
20260506100152 21 180 17.7 20.9 0.00 0.00 0.00 50 1008.5
20260506095654 21 180 20.9 24.1 0.00 0.00 0.00 50 1008.5
20260506094642 21 180 17.7 19.3 0.00 0.00 0.00 51 1008.4
20260506093631 21 135 25.7 30.6 0.00 0.00 0.00 51 1008.7
20260506092622 21 180 22.5 24.1 0.00 0.00 0.00 51 1008.4
20260506091608 21 180 11.3 12.9 0.00 0.00 0.00 51 1008.5
20260506090604 21 225 12.9 17.7 0.00 0.00 0.00 52 1008.6
20260506085700 21 180 12.9 16.1 0.00 0.00 0.00 52 1008.9
20260506084642 20 225 20.9 24.1 0.00 0.00 0.00 52 1008.5
20260506083636 20 180 14.5 17.7 0.00 0.00 0.00 53 1008.6
20260506082655 20 180 16.1 17.7 0.00 0.00 0.00 56 1008.7
20260506081605 19 135 17.7 19.3 0.00 0.00 0.00 56 1008.6
20260506080700 19 180 14.5 17.7 0.00 0.00 0.00 55 1008.6
20260506080152 19 225 12.9 16.1 0.00 0.00 0.00 55 1008.7
20260506072620 18 225 11.3 12.9 0.00 0.00 0.00 59 1008.8
20260506071630 18 180 11.3 12.9 0.00 0.00 0.00 59 1008.8
20260506070605 18 203 12.9 12.9 0.00 0.00 0.00 60 1009.0
20260506062209 17 180 17.7 17.7 0.00 0.00 0.00 66 1008.8
20260506061204 17 180 14.5 16.1 0.00 0.00 0.00 66 1008.6